Location: Br�ttisellen
(47.4227°N, 8.6287°E)
Time: 07:25:29
(UTC+00:00)

Cosmos 1943 Rocket - Pass Details

Date: 09 April 2020
Orbit: 812 x 844 km, 71.0° (Epoch: 23 May)

Event Time Altitude Azimuth Distance (km) Brightness Sun altitude
Rises 18:25:35 0° 326° (NW) 3,360 6.2 -3.9°
Reaches altitude 10° 18:28:10 10° 318° (NW) 2,428 5.7 -4.3°
Maximum altitude 18:33:10 35° 254° (WSW) 1,302 3.9 -5.1°
Drops below altitude 10° 18:38:11 10° 190° (S) 2,432 4.5 -5.9°
Sets 18:40:48 0° 181° (S) 3,367 5.1 -6.3°
